Weather History for KTHV - March, 2013

Change the Weather History Date:

Friday, March 1, 2013

  Actual Average Record
Temperature  
Mean Temperature 38 °F -  
Max Temperature 42 °F 0 °F 62 °F (2004)
Min Temperature 35 °F - 8 °F (2014)
Degree Days  
Heating Degree Days 26    
Moisture  
Dew Point 26 °F    
Average Humidity 62    
Maximum Humidity 73    
Minimum Humidity 53    
Precipitation  
Precipitation 0.00 in - - ()
Sea Level Pressure  
Sea Level Pressure 29.80 in    
Wind  
Wind Speed 7 mph (NW)    
Max Wind Speed 14 mph    
Max Gust Speed 20 mph    
Visibility 10 miles    
Events      
Averages and records for this station are not official NWS values.
T = Trace of Precipitation, MM = Missing Value Source: NWS Daily Summary

Daily Weather History Graph

Daily Weather History Graph

Search for Another Location

Airport or City:

Trip Planner

Search our weather history database for the weather conditions in past years. The results will help you decide how hot, cold, wet, or windy it might be!

Date:

Astronomy

Mar. 01, 2013 Rise Set
Actual Time 6:40 AM EST 5:59 PM EST
Civil Twilight 6:13 AM EST 6:26 PM EST
Nautical Twilight 5:41 AM EST 6:58 PM EST
Astronomical Twilight 5:10 AM EST 7:29 PM EST
Moon 10:30 PM EST (3/1) 8:26 AM EST (3/1)
Length of Visible Light 12h 13m
Length of Day
11h 19m
Waning Gibbous, 83% of the Moon is Illuminated
Mar 1
Waning Gibbous
Mar 4
Last Quarter
Mar 11
New
Mar 19
First Quarter
Mar 27
Full

Hourly Weather History & Observations

Time (EST) Temp. Windchill Dew Point Humidity Pressure Visibility Wind Dir Wind Speed Gust Speed Precip Events Conditions
12:53 AM 37.0 °F 33.3 °F 28.9 °F 73% 29.71 in 10.0 mi WNW 4.6 mph - N/A   Overcast
1:53 AM 37.0 °F 32.4 °F 28.9 °F 73% 29.72 in 10.0 mi West 5.8 mph - N/A   Overcast
2:53 AM 37.0 °F 32.4 °F 28.9 °F 73% 29.72 in 10.0 mi WNW 5.8 mph - N/A   Overcast
4:53 AM 37.0 °F 31.0 °F 28.0 °F 70% 29.74 in 10.0 mi WNW 8.1 mph - N/A   Overcast
5:53 AM 37.0 °F 33.3 °F 27.0 °F 67% 29.75 in 10.0 mi WNW 4.6 mph - N/A   Overcast
7:53 AM 37.0 °F 31.6 °F 28.0 °F 70% 29.78 in 10.0 mi WNW 6.9 mph - N/A   Overcast
9:53 AM 41.0 °F 33.5 °F 28.0 °F 60% 29.80 in 10.0 mi WNW 13.8 mph 19.6 mph N/A   Overcast
10:53 AM 41.0 °F 34.3 °F 28.0 °F 60% 29.80 in 10.0 mi WNW 11.5 mph 19.6 mph N/A   Overcast
11:53 AM 42.1 °F 35.7 °F 27.0 °F 55% 29.80 in 10.0 mi WNW 11.5 mph - N/A   Overcast
12:53 PM 41.0 °F 35.2 °F 25.0 °F 53% 29.80 in 10.0 mi NW 9.2 mph - N/A   Overcast
2:53 PM 41.0 °F 34.7 °F 25.0 °F 53% 29.79 in 10.0 mi NNW 10.4 mph 16.1 mph N/A   Overcast
3:53 PM 39.9 °F 34.5 °F 25.0 °F 55% 29.80 in 10.0 mi NNW 8.1 mph - N/A   Overcast
4:53 PM 39.9 °F 34.5 °F 25.0 °F 55% 29.81 in 10.0 mi NNW 8.1 mph - N/A   Overcast
5:53 PM 39.0 °F 34.8 °F 24.1 °F 55% 29.82 in 10.0 mi NW 5.8 mph - N/A   Overcast
6:53 PM 37.0 °F 32.4 °F 24.1 °F 59% 29.84 in 10.0 mi NW 5.8 mph - N/A   Overcast
7:53 PM 37.0 °F 31.0 °F 24.1 °F 59% 29.85 in 10.0 mi NNW 8.1 mph - N/A   Overcast
8:53 PM 36.0 °F 29.0 °F 24.1 °F 62% 29.86 in 10.0 mi WNW 9.2 mph - N/A   Overcast
9:53 PM 35.1 °F 28.6 °F 24.1 °F 64% 29.88 in 10.0 mi WNW 8.1 mph - N/A   Overcast
10:53 PM 35.1 °F 27.9 °F 23.0 °F 61% 29.87 in 10.0 mi NW 9.2 mph - N/A   Overcast
11:53 PM 35.1 °F 30.1 °F 21.9 °F 59% 29.86 in 10.0 mi NW 5.8 mph - N/A   Overcast